Regional Weather Roundup
Issued by NWS

Home | Current Version | Previous Version | Text Only | Print | Product List | Glossary On
Versions: 1 2 3 4 5 6 7 8 9 10 11 12 13 14 15 16 17 18 19 20 21 22 23 24 25 26 27 28 29 30 31 32 33 34 35 36 37 38 39 40 41 42 43 44 45 46 47 48 49 50
000
ASCA44 KEWX 230520
RWRMX

LATIN AMERICA AND CARIBBEAN REGIONAL WEATHER ROUNDUP
NATIONAL WEATHER SERVICE AUSTIN/SAN ANTONIO TX
1200 AM CDT TUE SEP 23 2014

NOTE: "FAIR" INDICATED FEW OR NO CLOUDS BELOW 12,000 FEET WITH NO
SIGNIFICANT WEATHER AND/OR OBSTRUCTIONS TO VISIBILITY.

BAJA CALIFORNIA

CITY           SKY/WX    TMP DP  RH WIND       PRES   REMARKS
LA PAZ           N/A    N/A N/A N/A MISG        N/A
MEXICALI       CLEAR     84  64  51 SE6       29.84S
S.J. DEL CABO    N/A    N/A N/A N/A MISG        N/A
TIJUANA        CLEAR     66  61  82 W5        29.97R

NORTHWESTERN MEXICO

CITY           SKY/WX    TMP DP  RH WIND       PRES   REMARKS
CULIACAN       PTCLDY    82  75  78 SW5       29.86F
DURANGO        MOCLDY    64  59  82 NE3       30.30R
LOS MOCHIS     PTCLDY    82  72  69 NW6       29.88S

NORTHEASTERN MEXICO

CITY           SKY/WX    TMP DP  RH WIND       PRES   REMARKS
CHIHUAHUA      CLOUDY    64  64 100 NW5       30.24S
MONTERREY      MOCLDY    73  72  94 CALM      30.11S
REYNOSA        PTCLDY    75  70  83 N3        30.05R
TORREON        PTCLDY    72  55  56 NE9       30.18R
CD. VICTORIA   MOCLDY    72  72 100 NW9       30.07R

WESTERN MEXICO

CITY           SKY/WX    TMP DP  RH WIND       PRES   REMARKS
AGUASCALIENTES PTCLDY    64  54  68 N3        30.27R
DEL BAJIO      MOCLDY    66  55  68 NE6       30.28S
GUADALAJARA    CLOUDY    64  63  94 E9        30.19R
MAZATLAN       MOCLDY    79  73  83 CALM      29.86R
P. VALLARTA    CLOUDY    82  75  78 N3        29.88R
ZACATECAS      PTCLDY    61  54  77 E3        30.32R

CENTRAL MEXICO

CITY           SKY/WX    TMP DP  RH WIND       PRES   REMARKS
MEXICO CITY    MOCLDY    63  54  72 NE6       30.34S
MORELIA        MOCLDY    59  59 100 CALM      30.24R
QUERETARO      CLOUDY    63  59  88 E5        30.33R
S. LUIS POTOSI MOCLDY    63  55  77 E3        30.28S
TOLUCA         CLOUDY    55  48  76 SE5       30.41R

SOUTHERN MEXICO

CITY           SKY/WX    TMP DP  RH WIND       PRES   REMARKS
ACAPULCO       PTCLDY    79  75  89 N3        29.88F
VERACRUZ       MOCLDY    79  73  83 NE5       29.95F

YUCATAN PENINSULA

CITY           SKY/WX    TMP DP  RH WIND       PRES   REMARKS
CAMPECHE       CLOUDY    75  75 100 S7        29.93F
CANCUN         MOCLDY    77  73  88 SE6       29.98S
COZUMEL        CLOUDY    73  73 100 CALM      29.99R THUNDER
MERIDA         MOCLDY    72  72 100 CALM      29.94F
TAPACHULA      PTCLDY    79  73  83 CALM      29.93R
TUX. GUTIERREZ CLOUDY    72  70  94 CALM      30.01S
VILLAHERMOSA   RAIN      73  72  94 SW9       29.99R

CENTRAL AMERICA

CITY           SKY/WX    TMP DP  RH WIND       PRES   REMARKS

CARIBBEAN

CITY           SKY/WX    TMP DP  RH WIND       PRES   REMARKS
KINGSTON       MOCLDY    81  73  78 NW10      29.92S
SAN JUAN       PTCLDY    79  75  89 CALM      29.93F
SANTO DOMINGO  PTCLDY    77  75  94 N7        29.92  THUNDER
ST. CROIX      PTCLDY    82  73  74 SE9       29.95S

$$




USA.gov is the U.S. government's official web portal to all federal, state and local government web resources and services.